P/2011 C2 ( Gibbs )

Japanese version
Home page
Updated on May 3, 2012

---------------------------------------------------------------------

* Profile

Discovery Date February 12, 2011
Magnitude 19.9 mag
Discoverer A. R. Gibbs (Mount Lemmon)

* Pictures

* Orbital Elements

Epoch 2011 Dec. 25.0 TT = JDT 2455920.5
T 2012 Jan. 7.53583 TT                                  MPC
q   5.3886644            (2000.0)            P               Q
n   0.04927724     Peri.  160.52943     -0.99069375     -0.13009667
a   7.3683759      Node    12.20351     +0.08555805     -0.82384716
e   0.2686768      Incl.   10.91035     +0.10585704     -0.55167990
P  20.0
From 161 observations 2011 Jan. 30-2012 Apr. 29, mean residual 0".5.

* Magnitudes Graph

        m1 = 9.0 + 5 log d + 10.0 log r

---------------------------------------------------------------------

The orbital elements are published on M.P.E.C. 2012-H90.
The magnitudes graphs are made with Comet for Windows.

---------------------------------------------------------------------

Copyright(C) Seiichi Yoshida (comet@aerith.net). All rights reserved.